Regional Weather Roundup
Issued by NWS

Home | Current Version | Previous Version | Text Only | Print | Product List | Glossary Off
Versions: 1 2 3 4 5 6 7 8 9 10 11 12 13 14 15 16 17 18 19 20 21 22 23 24 25 26 27 28 29 30 31 32 33 34 35 36 37 38 39 40 41 42 43 44 45 46 47 48 49 50

000
ASUS43 KLSX 261407
RWRMO

WEATHER SUMMARY FOR MISSOURI
NATIONAL WEATHER SERVICE SPRINGFIELD MO
900 AM CDT SUN MAR 26 2017

NOTE: "FAIR" INDICATES FEW OR NO CLOUDS BELOW 12,000 FEET WITH NO
       SIGNIFICANT WEATHER AND/OR OBSTRUCTIONS TO VISIBILITY.
       CURRENT SKY AND/OR WEATHER CONDITIONS ARE NOT AVAILABLE FOR
       CHILLICOTHE AND FARMINGTON.

MOZ001>031-035>038-043-044-053-054-261500-
...NORTHERN AND WESTERN MISSOURI...

CITY           SKY/WX    TMP DP  RH WIND       PRES   REMARKS
KANSAS CTY INT CLOUDY    44  42  93 NW3       29.89F
KANSAS C DTWN  CLOUDY    46  42  86 NW3       29.91R
LEE`S SUMMIT   CLOUDY    45  42  89 VRB3      29.90F
ST JOSEPH      CLOUDY    44  43  96 N7        29.90F
CHILLICOTHE      N/A     43  42  97 W6        29.91R
KIRKSVILLE     CLOUDY    45  44  97 W9        29.87R

$$
MOZ066>068-077>081-088>096-101>105-261500-
...SOUTHWEST MISSOURI...

CITY           SKY/WX    TMP DP  RH WIND       PRES   REMARKS
SPRINGFIELD    PTSUNNY   49  45  86 E6        29.90F
JOPLIN         PTSUNNY   49  46  90 SW3       29.94R
BRANSON        PTSUNNY   48  45  87 CALM      29.94S

$$
MOZ032>034-039>042-045>050-055>058-069>072-261500-
...CENTRAL MISSOURI...

CITY           SKY/WX    TMP DP  RH WIND       PRES   REMARKS
COLUMBIA       CLOUDY    48  48 100 W10       29.90R FOG
JEFFERSON CITY CLOUDY    51  48  89 W6        29.91R
ROLLA          CLOUDY    49  48  97 W13       29.90S
SEDALIA        CLOUDY    48  32  53 W9        29.92R HAZE
WHITEMAN AFB   CLOUDY    47  47 100 W7        29.90S
WARRENSBURG    CLOUDY    45  43  93 W3        29.90F
OSAGE BEACH    CLOUDY   N/A N/A N/A W8        29.93R

$$
MOZ051-052-059>065-261500-
...EAST CENTRAL MISSOURI...

CITY           SKY/WX    TMP DP  RH WIND       PRES   REMARKS
ST LOUIS INTL  CLOUDY    54  47  77 SW10      29.90R
SPIRIT OF STL  LGT RAIN  51  48  89 SW8       29.90R
ST CHARLES     CLOUDY    51  49  92 SW9       29.89R

$$
MOZ072>076-082>087-097>100-106>115-261500-
...SOUTH CENTRAL AND SOUTHEAST MISSOURI...

CITY           SKY/WX    TMP DP  RH WIND       PRES   REMARKS
CAPE GIRARDEAU CLOUDY    53  47  79 SW8       29.95R
FARMINGTON     CLOUDY    51  45  79 SW9       29.92F
POPLAR BLUFF   CLOUDY    53  47  79 SW9       29.97R
WEST PLAINS    CLOUDY    48  46  93 W6        29.95S

$$



USA.gov is the U.S. government's official web portal to all federal, state and local government web resources and services.